Regional Weather Roundup
Issued by NWS State College, PA

Home | Current Version | Previous Version | Text Only | Print | Product List | Glossary On
Versions: 1 2 3 4 5 6 7 8 9 10 11 12 13 14 15 16 17 18 19 20 21 22 23 24 25 26 27 28 29 30 31 32 33 34 35 36 37 38 39 40 41 42 43 44 45 46 47 48 49 50
000
ASUS41 KCTP 271610
RWRCTP

REGIONAL WEATHER ROUNDUP
NATIONAL WEATHER SERVICE STATE COLLEGE PA
1200 PM EDT MON APR 27 2015

Note: "fair" indicates few or no clouds below 12,000 feet with no
significant weather and/or obstructions to visibility.

* = STATION THAT DOES NOT REPORT PRECIPITATION /E.G. RAIN...SNOW...ETC/
    THUNDER OR FOG.

PAZ002>004-007>009-013>016-020>023-029>032-271700-
WESTERN PENNSYLVANIA

CITY           SKY/WX    TMP DP  RH WIND       PRES   REMARKS
ERIE           LGT RAIN  39  36  89 NW6       29.92R FOG
MEADVILLE      CLOUDY    39  35  86 W8        29.89R FOG
FRANKLIN*      CLOUDY    41  34  75 W7        29.88S
NEW CASTLE     LGT RAIN  41  38  89 W10       29.93R FOG
BEAVER COUNTY  LGT RAIN  41  36  81 NW9G17    29.90R
BUTLER*        CLOUDY    45  36  70 NW6       29.91R
PITTSBURGH INT CLOUDY    48  34  58 W14       29.89R
PITTSBURGH     CLOUDY    48  30  49 NW8G17    29.88S
INDIANA*       CLOUDY    46  34  61 NW9       29.89R
LATROBE        PTSUNNY   46  36  66 W9G18     29.89R
WASHINGTON CO* CLOUDY    48  34  57 W13       29.92S
$$

PAZ004>006-010>012-017>019-024>028-033>037-041-042-045-046-049>053-271700-
CENTRAL PENNSYLVANIA

CITY           SKY/WX    TMP DP  RH WIND       PRES   REMARKS
BRADFORD       LGT RAIN  40  34  79 NW10      29.81R
DUBOIS         CLOUDY    47  33  58 W14       29.82R
CLEARFIELD     CLOUDY    48  34  58 W10       29.82R
JOHNSTOWN      CLOUDY    42  30  62 W13       29.82R
ALTOONA        CLOUDY    50  30  46 NW12      29.81R
STATE COLLEGE  CLOUDY    50  32  50 NW12      29.79S
WILLIAMSPORT   CLOUDY    54  31  41 NW9       29.77S
SELINSGROVE    CLOUDY    54  33  45 NW7       29.78R
FT INDIANTOWN  PTSUNNY   55  30  39 VRB6      29.76S
CAPITAL CITY   CLOUDY    53  31  42 W12       29.78S
HARRISBURG     CLOUDY    54  32  43 W13       29.77S
YORK           CLOUDY    53  32  44 NW9       29.78R
$$

PAZ038>040-043-044-047-048-054-055-060>062-067>071-271700-
EASTERN PENNSYLVANIA

CITY           SKY/WX    TMP DP  RH WIND       PRES   REMARKS
SCRANTON       CLOUDY    51  34  52 N10       29.74F
MOUNT POCONO   CLOUDY    47  31  53 NW16G23   29.70S
ALLENTOWN      CLOUDY    54  36  50 NW10      29.74F
QUAKERTOWN*    CLOUDY    54  36  50 NW8       29.74F
READING        PTSUNNY   56  34  43 NW10G18   29.75S
LANCASTER      CLOUDY    53  33  46 NW13      29.76R
COATESVILLE    CLOUDY    54  34  47 NW9       29.75S
POTTSTOWN      CLOUDY    56  35  45 N13       29.75S
BLUE BELL      MOSUNNY   55  36  47 W3        29.73S
DOYLESTOWN     CLOUDY    54  35  48 NW12      29.72F
WILLOW GROVE   NOT AVBL
NORTH PHILA    CLOUDY    59  33  37 NW15      29.74F
PHILADELPHIA   PTSUNNY   58  34  40 N7        29.73F
$$



USA.gov is the U.S. government's official web portal to all federal, state and local government web resources and services.